Regional Weather Roundup
Issued by NWS Albany, NY

Home | Current Version | Previous Version | Text Only | Print | Product List | Glossary On
Versions: 1 2 3 4 5 6 7 8 9 10 11 12 13 14 15 16 17 18 19 20 21 22 23 24 25 26 27 28 29 30 31 32 33 34 35 36 37 38 39 40 41 42 43 44 45 46 47 48 49 50
376
ASUS41 KALY 281310
RWRALY

NEW YORK STATE HOURLY WEATHER ROUNDUP
NATIONAL WEATHER SERVICE ALBANY NY
900 AM EDT WED JUN 28 2017

NOTE: "FAIR" INDICATES FEW OR NO CLOUDS BELOW 12,000 FEET WITH NO
SIGNIFICANT WEATHER AND/OR NO OBSTRUCTIONS TO VISIBILITY.

NYZ032-033-038>043-046>054-057>066-NYZ062>081-082-084-281400-
EAST


CITY           SKY/WX    TMP DP  RH WIND       PRES   REMARKS
ALBANY         MOSUNNY   65  53  65 W8        30.08R
GLENS FALLS    SUNNY     62  53  72 S7        30.05S
POUGHKEEPSIE   SUNNY     65  52  62 SW7       30.10R
NEWBURGH       SUNNY     63  55  77 W12       30.13R
MONTGOMERY     SUNNY     65  52  62 W9        30.11R
WHITE PLAINS   SUNNY     65  52  62 NW8       30.11R
ISLIP          MOSUNNY   67  54  63 N10       30.10R
NEW YORK CITY  SUNNY     68  54  60 NW13      30.11R
CENTRAL PARK   SUNNY     65  50  58 VRB7      30.15R
$$

NYZ005>009-017-018-044>046-055-056-281400-
CENTRAL


CITY           SKY/WX    TMP DP  RH WIND       PRES   REMARKS
FULTON         SUNNY     63  55  75 SW7       30.08S
SYRACUSE       MOSUNNY   64  55  72 W13       30.08R
ROME           MOSUNNY   60  55  83 VRB6      30.10R
ELMIRA         SUNNY     61  50  67 SW7       30.12S
BINGHAMTON     SUNNY     57  51  80 SW7       30.13R
MONTICELLO     SUNNY     57  54  88 W7        30.15R
$$

NYZ026>034-041>043-087-281400-
NORTH


CITY           SKY/WX    TMP DP  RH WIND       PRES   REMARKS
WATERTOWN      SUNNY     65  56  72 SW8       30.06R
FORT DRUM      NOT AVBL
OGDENSBURG     FAIR      58  55  87 SW5       30.03S
MASSENA        MOSUNNY   63  55  75 SW9       30.02S
SARANAC LAKE   SUNNY     57  51  80 SW9       30.03R
PLATTSBURGH    SUNNY     64  53  67 W6        30.00S
$$

NYZ001>004-010>016-019>021-085-281400-
WEST


CITY           SKY/WX    TMP DP  RH WIND       PRES   REMARKS
NIAGARA FALLS  SUNNY     69  54  58 W8        30.08R
BUFFALO        MOSUNNY   67  55  65 SW13      30.09R
DUNKIRK        SUNNY     66  55  67 SW9       30.12R
JAMESTOWN      SUNNY     57  48  72 SW8       30.15R
WELLSVILLE     SUNNY     60  47  61 W8        30.16R
ROCHESTER      MOSUNNY   64  55  72 SW8       30.09S
PENN YAN       SUNNY     63  50  62 S8        30.11S
$$

             KEY
       WCI = WIND CHILL INDEX
       VSB = VISIBILITY
       HX  = HEAT INDEX
$$




USA.gov is the U.S. government's official web portal to all federal, state and local government web resources and services.